Tracking 18852 objects as of 23-Nov-2017
HD Live streaming from Space Station
objects crossing your sky now

FENGYUN 1C DEB

Track FENGYUN 1C DEB now!
10-day predictions


NORAD ID: 31009
Int'l Code: 1999-025BDB
Perigee: 859.7 km
Apogee: 953.4 km
Inclination: 99.0 °
Period: 103.0 minutes
Semi major axis: 7277 km
RCS: 0.01 m2 (small)
Launch date: May 10, 1999
Source: People's Republic of China (PRC)
Launch site: Taiyaun Space Center, China (TSC)

Note: This is SATELLITE DEBRIS
aabbcc
Your satellite tracking list
Your tracking list is empty




NASA's NSSDC Master Catalog

Two Line Element Set (TLE):
1 31009U 99025BDB 17326.08560748  .00000212  00000-0  17575-3 0  9998
2 31009  99.0448 354.8921 0064353  88.1013 332.7825 13.98374452547410
Source of the keplerian elements: AFSPC